星链-2035 (STARLINK-2035 )

导读 | 星芒AI

STARLINK-2035 是星链计划中的一颗先进低轨通信卫星,预计于2035年部署。该卫星采用最新一代通信技术,具备更高的数据传输速率和更强的抗干扰能力,旨在为全球用户提供更稳定、更快速的互联网服务。其设计优化了能源效率与轨道运行寿命,支持大规模星座组网,进一步提升偏远地区的网络覆盖。作为星链系统的重要组成部分,STARLINK-2035 将推动全球数字化进程,助力实现真正的全球互联。

基本信息
目录编号:
47651
目录名称:
STARLINK-2035
国际标识:
2021-012AH
轨道中心:
EARTH
卫星名称:
星链-2035
卫星全名:
星链-2035 (STARLINK-2035 )
卫星状态:
已陨落 最后检测时间 2025-03-30
发射日期:
2021-02-16 UTC
国别 :
美国 (US)
星等 :
--
轨道信息
数据来源 国际轨道数据
星历时间: 2025-03-30T13:47:36+0800
轨道信息已过期261天
半长轴: 6528.782km
偏心率: 0.0002537
轨道倾角: 53.028°
近地点辐角 285.930°
升交点赤经 151.828°
平近点角 186.089°
近地点: 148.99km
远地点: 152.304km
周期: 87.500分钟
每日圈数: 16.457148
详细信息
固有亮度:
5
最大亮度:
2.5
卫星平台:
Starlink V1.0
覆盖范围:
全球
运营商:
太空探索技术公司
运营商所在国:
美国
制造商(研发单位):
太空探索技术公司
制造商所在国:
美国
使用方式:
暂无
卫星简介
星链(Starlink)计划是由太空探索技术公司(SpaceX)提出的一个巨型低轨卫星互联网星座项目,计划在2019年至2024年间在太空搭建由约1.2万颗卫星组成的“星链”网络,其中1584颗将部署在地球上空550千米处的近地轨道,并从2020年开始工作。该卫星仍在工作。